GW2509 Weather Reports


time (UTC)temp
C
wind
direction
speed
KPH
gust
KPH
rain 1hr
cm
rain 24hr
cm
rain mn
cm
humidity
%
barometer
mb
20260504000029 15 158 6.4 16.1 0.00 0.00 0.00 53 1009.7
20260503235527 15 191 6.4 12.9 0.00 0.00 0.00 53 1009.9
20260503235023 15 188 3.2 14.5 0.00 0.00 0.00 53 1009.5
20260503234521 15 201 6.4 14.5 0.00 0.00 0.00 53 1009.9
20260503234019 15 217 14.5 17.7 0.00 0.00 0.00 53 1009.5
20260503233515 15 193 6.4 12.9 0.00 0.00 0.00 54 1009.5
20260503233011 15 178 9.7 14.5 0.00 0.00 0.00 54 1009.7
20260503232508 15 211 12.9 14.5 0.00 0.00 0.00 53 1009.7
20260503232006 15 208 12.9 22.5 0.00 0.00 0.00 55 1009.8
20260503231504 15 176 11.3 29.0 0.00 0.00 0.00 55 1009.8
20260503231000 15 184 12.9 17.7 0.00 0.00 0.00 55 1009.6
20260503230456 15 183 17.7 25.7 0.00 0.00 0.00 54 1009.5
20260503225954 15 206 8.0 22.5 0.00 0.00 0.00 55 1009.5
20260503225451 15 184 4.8 14.5 0.00 0.00 0.00 54 1009.5
20260503224946 15 204 16.1 22.5 0.00 0.00 0.00 52 1009.9
20260503224443 15 216 6.4 25.7 0.00 0.00 0.00 52 1009.8
20260503223941 15 189 11.3 16.1 0.00 0.00 0.00 52 1010.4
20260503223439 15 224 14.5 16.1 0.00 0.00 0.00 52 1010.2
20260503222934 15 223 9.7 22.5 0.00 0.00 0.00 50 1010.1
20260503222433 15 208 11.3 17.7 0.00 0.00 0.00 49 1010.0
20260503221931 15 222 11.3 22.5 0.00 0.00 0.00 48 1010.1
20260503221429 15 164 14.5 24.1 0.00 0.00 0.00 49 1010.5
20260503220925 15 206 9.7 20.9 0.00 0.00 0.00 49 1010.2
20260503220421 15 226 14.5 20.9 0.00 0.00 0.00 49 1010.4
20260503215919 15 163 9.7 14.5 0.00 0.00 0.00 49 1010.0
20260503215416 15 215 22.5 30.6 0.00 0.00 0.00 47 1009.8
20260503214913 15 183 8.0 25.7 0.00 0.00 0.00 50 1009.9
20260503214411 15 212 16.1 30.6 0.00 0.00 0.00 49 1010.5
20260503213908 15 194 17.7 27.4 0.00 0.00 0.00 50 1010.5
20260503213406 15 138 6.4 24.1 0.00 0.00 0.00 50 1010.4
20260503212902 15 142 14.5 20.9 0.00 0.00 0.00 50 1010.4
20260503212400 15 186 14.5 20.9 0.00 0.00 0.00 50 1010.5
20260503211857 15 196 16.1 24.1 0.00 0.00 0.00 49 1011.0
20260503211354 15 210 14.5 17.7 0.00 0.00 0.00 49 1011.1
20260503210848 15 208 19.3 27.4 0.00 0.00 0.00 49 1011.3
20260503210346 15 163 9.7 20.9 0.00 0.00 0.00 49 1011.1
20260503205841 16 197 9.7 27.4 0.00 0.00 0.00 48 1011.3
20260503205338 15 209 17.7 27.4 0.00 0.00 0.00 46 1011.4
20260503204834 15 192 8.0 20.9 0.00 0.00 0.00 48 1011.6
20260503204332 16 170 16.1 25.7 0.00 0.00 0.00 45 1011.4
20260503203829 16 198 17.7 22.5 0.00 0.00 0.00 46 1011.7
20260503203326 16 184 14.5 29.0 0.00 0.00 0.00 44 1011.8
20260503202823 16 193 16.1 22.5 0.00 0.00 0.00 44 1011.6
20260503202321 16 203 16.1 29.0 0.00 0.00 0.00 43 1011.8
20260503201819 16 192 14.5 25.7 0.00 0.00 0.00 44 1012.3
20260503201316 16 248 17.7 35.4 0.00 0.00 0.00 43 1012.7
20260503200814 16 230 20.9 41.8 0.00 0.00 0.00 43 1012.5
20260503200309 16 213 19.3 29.0 0.00 0.00 0.00 44 1012.6
20260503195807 16 189 9.7 37.0 0.00 0.00 0.00 44 1012.8
20260503195304 16 228 14.5 25.7 0.00 0.00 0.00 42 1013.0
20260503194800 16 236 20.9 30.6 0.00 0.00 0.00 44 1013.7
20260503194256 16 194 14.5 33.8 0.00 0.00 0.00 45 1013.7
20260503193753 16 203 19.3 22.5 0.00 0.00 0.00 45 1013.8
20260503193249 16 231 16.1 24.1 0.00 0.00 0.00 44 1014.0
20260503192745 16 208 17.7 30.6 0.00 0.00 0.00 43 1014.0
20260503192240 16 192 12.9 29.0 0.00 0.00 0.00 44 1013.9
20260503191737 16 240 24.1 37.0 0.00 0.00 0.00 43 1013.9
20260503191234 16 206 9.7 30.6 0.00 0.00 0.00 45 1014.1
20260503190731 16 204 27.4 35.4 0.00 0.00 0.00 43 1014.0
20260503190227 16 178 14.5 24.1 0.00 0.00 0.00 45 1014.0
20260503185725 16 226 24.1 29.0 0.00 0.00 0.00 43 1014.1
20260503185220 16 237 29.0 38.6 0.00 0.00 0.00 42 1014.2
20260503184715 16 185 25.7 41.8 0.00 0.00 0.00 42 1014.2
20260503184212 16 244 20.9 38.6 0.00 0.00 0.00 43 1014.1
20260503183708 16 196 25.7 37.0 0.00 0.00 0.00 43 1014.0
20260503183205 16 226 19.3 22.5 0.00 0.00 0.00 44 1014.1
20260503182704 16 225 24.1 33.8 0.00 0.00 0.00 46 1014.3
20260503182202 16 216 37.0 41.8 0.00 0.00 0.00 43 1014.4
20260503181658 16 231 12.9 25.7 0.00 0.00 0.00 46 1014.6
20260503181155 15 208 24.1 33.8 0.00 0.00 0.00 46 1014.4
20260503180651 16 238 14.5 22.5 0.00 0.00 0.00 45 1014.5
20260503180150 16 224 20.9 35.4 0.00 0.00 0.00 45 1014.8
20260503175647 16 233 19.3 29.0 0.00 0.00 0.00 45 1014.9
20260503175144 16 191 17.7 38.6 0.00 0.00 0.00 45 1015.1
20260503174640 15 230 17.7 38.6 0.00 0.00 0.00 47 1015.3
20260503174137 15 220 24.1 35.4 0.00 0.00 0.00 46 1015.7
20260503173632 16 215 22.5 37.0 0.00 0.00 0.00 45 1015.4
20260503173129 15 185 20.9 35.4 0.00 0.00 0.00 46 1015.6
20260503172626 15 226 33.8 37.0 0.00 0.00 0.00 45 1016.0
20260503172124 15 216 24.1 30.6 0.00 0.00 0.00 47 1015.9
20260503171620 15 230 30.6 33.8 0.00 0.00 0.00 46 1016.1
20260503171117 15 192 20.9 30.6 0.00 0.00 0.00 45 1016.0
20260503170614 15 219 32.2 38.6 0.00 0.00 0.00 46 1016.1
20260503170111 15 225 17.7 24.1 0.00 0.00 0.00 47 1016.3
20260503151006 13 255 19.3 35.4 0.00 0.00 0.00 53 1017.7
20260503150502 13 199 16.1 22.5 0.00 0.00 0.00 52 1017.7
20260503131355 9 206 12.9 20.9 0.00 0.00 0.00 64 1018.0
20260503130853 9 215 12.9 16.1 0.00 0.00 0.00 65 1018.0
20260503130350 8 199 4.8 16.1 0.00 0.00 0.00 65 1018.0
20260503110744 3 185 3.2 4.8 0.00 0.00 0.00 76 1017.8
20260503110241 3 166 1.6 4.8 0.00 0.00 0.00 77 1017.7
20260503100207 3 157 1.6 1.6 0.00 0.00 0.00 77 1017.5
20260503090131 4 206 3.2 9.7 0.00 0.00 0.00 73 1017.8
20260503081602 3 179 1.6 1.6 0.00 0.00 0.00 74 1017.7
20260503081059 3 190 1.6 1.6 0.00 0.00 0.00 74 1017.5
20260503080554 3 190 1.6 1.6 0.00 0.00 0.00 74 1017.9
20260503072529 3 177 0.0 1.6 0.00 0.00 0.00 76 1017.8
20260503072026 3 176 0.0 0.0 0.00 0.00 0.00 76 1017.9
20260503071522 3 176 1.6 1.6 0.00 0.00 0.00 76 1017.9
20260503071019 3 174 1.6 1.6 0.00 0.00 0.00 75 1017.8
20260503070516 3 153 0.0 1.6 0.00 0.00 0.00 75 1017.9
20260503054939 3 149 0.0 3.2 0.00 0.00 0.00 75 1018.0
20260503054436 3 142 0.0 0.0 0.00 0.00 0.00 75 1018.2
20260503053933 3 142 0.0 0.0 0.00 0.00 0.00 76 1018.4
20260503053431 3 142 0.0 0.0 0.00 0.00 0.00 78 1018.1
20260503052927 3 142 0.0 0.0 0.00 0.00 0.00 80 1018.2
20260503052425 3 142 0.0 0.0 0.00 0.00 0.00 84 1018.2
20260503051921 3 142 0.0 1.6 0.00 0.00 0.00 86 1018.1
20260503051417 3 142 1.6 1.6 0.00 0.00 0.00 87 1018.3
20260503050914 3 142 3.2 3.2 0.00 0.00 0.00 86 1018.1
20260503050410 3 142 1.6 3.2 0.00 0.00 0.00 86 1018.4
20260503045908 4 142 3.2 3.2 0.00 0.00 0.00 84 1018.3
20260503045405 4 142 1.6 1.6 0.00 0.00 0.00 81 1018.4
20260503044902 4 142 1.6 1.6 0.00 0.00 0.00 82 1018.3
20260503044359 4 142 1.6 1.6 0.00 0.00 0.00 82 1018.4
20260503043856 4 142 1.6 1.6 0.00 0.00 0.00 81 1018.3
20260503043353 4 142 1.6 1.6 0.00 0.00 0.00 81 1018.3
20260503042849 4 142 0.0 1.6 0.00 0.00 0.00 80 1018.2
20260503042346 4 142 1.6 1.6 0.00 0.00 0.00 78 1018.1
20260503041842 4 142 1.6 3.2 0.00 0.00 0.00 78 1018.3
20260503041339 4 143 0.0 0.0 0.00 0.00 0.00 77 1018.3
20260503040837 4 142 1.6 1.6 0.00 0.00 0.00 75 1018.2
20260503040334 4 139 1.6 1.6 0.00 0.00 0.00 77 1018.2
20260503035831 4 139 1.6 1.6 0.00 0.00 0.00 78 1018.4
20260503035328 4 139 1.6 1.6 0.00 0.00 0.00 80 1018.4
20260503034825 4 139 0.0 0.0 0.00 0.00 0.00 81 1018.3
20260503034323 5 139 0.0 0.0 0.00 0.00 0.00 79 1018.3
20260503033820 5 139 0.0 1.6 0.00 0.00 0.00 79 1018.4
20260503033317 5 139 1.6 1.6 0.00 0.00 0.00 78 1018.3
20260503032815 5 132 1.6 1.6 0.00 0.00 0.00 76 1018.2
20260503032314 5 132 1.6 1.6 0.00 0.00 0.00 75 1018.4
20260503031811 5 131 3.2 1.6 0.00 0.00 0.00 73 1018.2
20260503031309 5 150 1.6 1.6 0.00 0.00 0.00 72 1018.4
20260503030804 5 151 1.6 1.6 0.00 0.00 0.00 71 1018.2
20260503030301 5 203 1.6 1.6 0.00 0.00 0.00 71 1018.3
20260503025758 5 203 1.6 1.6 0.00 0.00 0.00 70 1018.2
20260503025255 5 205 1.6 1.6 0.00 0.00 0.00 69 1018.3
20260503024752 5 205 1.6 3.2 0.00 0.00 0.00 70 1018.3
20260503024249 5 204 1.6 1.6 0.00 0.00 0.00 70 1018.2
20260503023746 6 204 1.6 1.6 0.00 0.00 0.00 69 1018.2
20260503023243 6 204 1.6 1.6 0.00 0.00 0.00 66 1018.3
20260503022739 5 204 1.6 1.6 0.00 0.00 0.00 67 1018.2
20260503022239 5 204 1.6 0.0 0.00 0.00 0.00 70 1018.2
20260503021737 6 204 0.0 0.0 0.00 0.00 0.00 69 1018.3
20260503021232 6 204 1.6 1.6 0.00 0.00 0.00 67 1018.1
20260503020731 6 234 0.0 1.6 0.00 0.00 0.00 66 1018.3
20260503020228 6 234 0.0 0.0 0.00 0.00 0.00 62 1018.1
20260503015724 6 234 1.6 1.6 0.00 0.00 0.00 59 1018.2
20260503015221 6 234 1.6 1.6 0.00 0.00 0.00 62 1018.0
20260503014717 7 234 1.6 1.6 0.00 0.00 0.00 62 1017.9
20260503014215 7 234 0.0 1.6 0.00 0.00 0.00 57 1017.8
20260503013712 7 234 0.0 0.0 0.00 0.00 0.00 62 1018.0
20260503013210 7 234 0.0 1.6 0.00 0.00 0.00 60 1017.7
20260503012707 7 234 0.0 0.0 0.00 0.00 0.00 54 1017.9
20260503012204 7 234 0.0 0.0 0.00 0.00 0.00 52 1017.8
20260503011700 7 234 1.6 1.6 0.00 0.00 0.00 53 1017.6
20260503011157 7 234 1.6 1.6 0.00 0.00 0.00 53 1017.6
20260503010653 8 321 1.6 1.6 0.00 0.00 0.00 56 1017.7
20260503010151 8 5 0.0 0.0 0.00 0.00 0.00 47 1017.5
20260503005648 8 5 0.0 1.6 0.00 0.00 0.00 50 1017.7
20260503005145 9 4 0.0 0.0 0.00 0.00 0.00 53 1017.6
20260503004641 9 4 0.0 0.0 0.00 0.00 0.00 45 1017.7
20260503004140 10 4 0.0 0.0 0.00 0.00 0.00 43 1017.7
20260503003636 10 4 0.0 1.6 0.00 0.00 0.00 44 1017.5
20260503003133 10 4 0.0 0.0 0.00 0.00 0.00 44 1017.6
20260503002630 10 5 0.0 1.6 0.00 0.00 0.00 43 1017.6
20260503002127 11 355 3.2 3.2 0.00 0.00 0.00 40 1017.6
20260503001623 11 348 3.2 3.2 0.00 0.00 0.00 40 1017.5
20260503001120 11 4 1.6 3.2 0.00 0.00 0.00 39 1017.6
20260503000618 11 355 1.6 3.2 0.00 0.00 0.00 38 1017.5